Wind_Speed
1 2 2 3 4 5 5 5 5 6 6 5 5 5 5 5 4 3 4 4 4 4 4 4 4 4 4 4 3 3 3 3 3 3 2 2 2 2 3 3 3 3 2
2 2 2 3 3 4 4 5 5 6 6 5 5 5 4 4 4 3 3 4 4 4 4 5 5 5 4 4 4 4 5 4 3 3 3 2 2 3 3 3 3 3 3
2 2 3 3 4 4 4 4 4 5 5 5 4 4 4 4 4 3 3 4 4 4 4 5 5 4 5 5 5 4 5 5 4 4 4 3 3 3 3 3 3 3 3
1 2 3 4 4 3 3 3 4 4 4 5 5 4 4 4 4 3 4 4 4 3 4 4 4 4 4 5 4 3 3 4 4 4 4 3 3 3 4 3 3 3 3
2 3 3 4 4 3 3 2 3 4 4 5 5 5 5 5 3 3 3 3 3 3 3 4 4 4 4 4 4 3 3 3 3 3 4 4 4 4 4 4 3 3 3
3 3 4 4 4 4 3 3 3 4 4 4 5 6 5 4 4 3 4 4 4 4 4 4 5 5 5 4 4 3 3 3 3 4 4 4 4 4 3 3 3 3 3
2 3 4 4 4 4 3 3 4 5 4 4 5 6 5 5 4 4 5 4 4 4 4 5 5 5 5 5 4 3 3 4 4 3 4 4 4 4 3 3 3 3 4
3 3 3 3 4 4 3 4 4 5 5 5 6 6 5 5 5 5 5 5 5 5 5 5 6 5 5 5 5 4 4 4 4 4 4 5 5 5 5 5 4 5 4
4 3 3 3 3 3 4 4 5 5 5 5 6 6 6 5 5 6 5 6 6 5 5 6 6 5 5 4 4 4 4 4 5 5 5 5 5 5 5 5 5 5 6
4 4 3 3 3 3 4 4 5 5 5 5 6 5 6 5 5 5 6 6 6 6 5 5 5 4 4 4 4 4 4 4 4 5 5 6 6 6 6 6 5 6 6
4 4 3 3 3 4 4 5 5 5 5 6 6 6 5 5 5 6 6 6 5 5 5 5 5 4 5 5 5 4 4 4 4 5 5 6 6 6 6 6 6 6 7
4 3 3 3 4 4 5 5 5 5 5 6 6 6 6 6 6 6 6 6 5 5 5 5 5 5 5 5 5 5 4 5 5 5 5 6 6 6 7 7 7 7 7
4 4 4 4 4 5 5 5 6 6 6 6 6 6 6 6 6 6 6 6 5 5 5 5 5 5 6 5 5 5 5 5 5 5 5 6 6 7 6 7 7 7 7
5 4 5 5 5 5 5 5 6 6 6 6 6 7 7 6 6 7 6 6 6 6 6 6 6 6 7 6 6 6 6 5 5 6 6 6 6 6 6 6 7 7 8
6 6 5 6 5 6 6 6 6 6 7 7 7 7 7 7 7 7 7 6 7 7 7 7 8 7 7 6 6 6 6 6 6 6 6 6 7 7 7 7 7 7 7
7 6 6 6 6 6 6 6 6 6 6 7 6 6 7 7 7 6 7 7 6 6 7 7 7 7 7 6 5 5 5 5 6 6 6 6 6 7 7 7 7 7 7
7 7 7 7 6 6 6 6 6 6 6 6 6 6 7 7 7 7 7 6 7 7 7 7 7 7 7 6 5 5 5 5 5 5 5 5 6 7 7 7 7 7 7
8 8 8 8 7 7 7 6 6 6 7 7 6 6 6 6 7 6 6 6 7 7 6 6 6 6 6 5 5 5 5 5 5 5 5 5 5 6 6 6 7 7 7
9 8 8 8 8 8 8 7 7 7 7 7 7 7 6 6 5 5 6 6 6 5 5 6 6 5 5 5 5 5 5 5 5 5 5 5 5 6 6 6 7 7 7
10 9 9 9 9 9 9 8 8 8 8 7 7 7 6 6 6 6 6 5 5 5 5 6 6 5 4 4 4 5 5 5 5 5 5 5 5 6 6 7 7 7 7
10 10 9 10 10 10 10 10 10 9 9 8 7 7 6 6 6 6 6 6 6 5 5 5 5 5 5 4 4 5 5 5 5 5 5 5 6 6 7 7 8 8 8
10 10 10 11 11 11 10 10 10 10 10 9 8 8 7 7 7 7 6 6 6 6 5 5 5 5 5 5 5 5 6 6 6 5 5 4 5 7 7 8 8 9 9
11 11 11 11 11 11 10 10 10 10 10 10 8 8 8 8 7 7 7 7 6 6 6 5 5 5 5 5 5 5 6 6 6 6 5 5 6 7 7 8 8 9 10
11 11 11 11 12 12 11 11 11 11 10 10 9 9 8 8 8 8 8 7 7 6 6 5 5 5 5 5 6 6 6 6 6 6 6 6 7 7 8 9 9 10 10
11 12 12 12 12 12 12 12 12 12 11 11 10 10 9 9 9 9 8 8 8 7 6 6 6 6 5 5 6 6 6 6 7 7 7 8 8 9 9 9 10 10 10
11 12 12 12 12 12 12 12 12 12 11 11 11 11 10 10 10 10 9 9 8 8 7 7 7 6 7 7 7 7 7 8 8 8 8 9 9 9 10 10 10 10 10
Wind_Direction
14 3 355 0 2 7 14 17 23 24 21 22 18 17 13 5 1 359 360 355 353 347 342 337 335 332 319 308 299 281 269 261 264 268 264 254 247 242 241 235 230 221 221
347 341 336 350 348 352 359 11 14 17 16 19 16 10 8 3 356 354 353 350 344 338 334 327 322 323 316 303 291 280 269 260 256 265 266 264 257 251 247 241 235 230 229
333 328 324 329 330 334 343 354 4 10 14 20 15 8 5 359 359 4 356 345 339 334 330 325 318 316 315 306 296 280 263 256 254 261 262 262 258 251 251 249 245 239 235
328 328 320 315 312 315 326 346 355 2 10 14 6 356 356 358 352 356 348 341 340 338 334 327 326 323 316 317 314 300 255 249 255 262 263 262 257 248 246 246 244 249 241
316 329 321 307 304 309 311 338 347 351 355 355 351 352 347 348 341 335 339 335 333 329 326 329 328 321 317 315 306 294 266 259 257 260 262 260 256 252 250 249 243 250 248
302 312 315 310 299 301 299 304 324 332 335 336 336 337 333 329 328 321 325 325 319 319 319 324 324 317 311 304 298 280 265 260 261 260 261 259 256 255 253 247 243 250 248
292 309 316 308 297 293 294 303 308 316 321 320 322 323 323 321 314 313 320 317 312 318 323 321 323 316 307 301 298 280 259 254 258 257 259 259 257 256 254 256 250 255 259
287 302 307 300 297 293 298 307 313 319 319 319 316 312 308 309 304 301 307 307 311 313 313 316 320 319 306 300 294 278 258 254 252 253 258 260 260 258 256 259 260 262 263
278 287 289 290 293 294 298 307 317 318 319 319 315 309 303 300 300 300 297 301 302 303 304 309 314 314 310 307 300 285 270 263 257 255 258 262 260 256 256 258 261 262 264
273 274 280 287 287 291 292 300 310 313 313 314 313 306 299 296 294 296 294 293 295 292 297 301 305 308 305 306 310 305 290 275 265 261 260 261 260 257 258 260 264 267 268
267 267 276 285 280 281 284 289 299 306 312 313 311 307 299 292 290 292 294 292 293 292 294 297 296 297 294 295 299 295 291 287 278 266 262 259 258 258 260 263 264 268 274
264 263 271 276 270 275 283 287 293 300 306 309 308 304 298 290 287 286 291 291 287 285 289 290 291 293 293 291 290 290 291 288 279 273 266 264 265 265 267 268 268 269 275
267 263 261 267 272 273 278 285 291 296 300 303 302 301 298 289 284 284 286 281 280 279 281 281 287 288 287 288 285 288 288 283 282 279 276 275 274 272 272 274 270 268 272
260 259 262 267 272 272 272 278 285 292 297 298 297 293 296 293 283 278 274 274 277 279 278 280 286 285 285 280 279 283 283 282 281 282 279 277 276 276 276 275 274 271 273
254 252 258 266 270 274 274 274 279 286 291 294 296 295 296 293 281 274 269 268 275 281 280 282 288 284 280 279 278 282 280 278 277 278 275 275 274 274 276 276 272 274 276
256 257 261 263 267 271 271 274 281 286 290 297 299 294 290 285 280 274 271 270 275 279 275 278 282 280 281 280 277 281 281 277 279 278 276 275 276 277 278 279 274 271 274
255 255 259 262 266 268 268 271 279 285 289 299 301 292 288 284 275 270 276 278 276 278 279 276 282 284 281 276 270 277 285 282 282 276 275 275 279 282 279 284 282 275 277
257 257 259 262 264 264 263 266 272 280 284 293 298 292 287 288 286 278 281 283 282 281 278 282 281 283 282 278 273 275 278 278 279 275 277 277 283 287 281 284 284 281 280
261 260 256 261 259 258 260 262 270 275 278 286 292 293 292 292 289 281 288 288 288 287 282 286 286 283 284 280 275 273 272 274 277 276 280 281 286 288 286 284 281 281 284
259 258 259 259 254 256 259 260 264 269 274 278 286 288 291 292 287 284 287 289 290 287 286 283 286 282 280 280 276 274 273 274 276 276 281 283 287 287 287 285 282 281 283
257 258 259 257 256 256 259 259 262 269 276 280 281 282 289 291 285 280 284 287 286 285 288 283 280 279 274 278 280 277 277 280 279 277 278 281 283 286 293 291 290 289 287
255 254 255 253 258 262 264 263 262 267 274 276 274 275 279 284 279 276 280 284 287 286 287 285 281 279 270 273 278 278 278 280 280 280 277 276 279 287 295 293 292 290 290
256 254 256 256 259 263 264 264 264 267 270 268 267 273 277 277 273 274 274 278 282 283 284 283 277 277 272 269 271 275 278 279 278 281 279 281 287 293 295 295 294 290 288
257 256 257 259 258 260 263 265 265 265 264 264 265 270 276 275 273 273 273 276 276 275 277 280 273 273 272 270 270 273 279 280 280 286 283 286 291 293 294 298 298 295 292
256 255 257 259 258 260 262 266 266 263 261 263 264 266 270 269 271 273 274 275 273 271 273 276 270 263 268 272 276 278 278 278 280 284 286 286 289 291 293 298 300 298 296
259 258 256 259 261 262 263 266 267 263 261 262 263 265 266 267 270 271 273 273 269 271 273 273 268 264 267 271 275 281 283 283 285 286 289 289 289 290 292 295 297 297 296
Height
5882 5881 5881 5881 5881 5880 5880 5879 5879 5878 5878 5877 5877 5877 5877 5876 5876 5877 5877 5877 5877 5877 5877 5877 5877 5877 5877 5876 5876 5876 5876 5876 5877 5877 5878 5878 5878 5878 5879 5879 5879 5880 5880
5882 5881 5881 5881 5881 5880 5880 5880 5879 5878 5878 5877 5877 5877 5876 5876 5876 5876 5877 5877 5877 5877 5877 5877 5877 5876 5876 5876 5875 5875 5875 5875 5876 5876 5877 5877 5878 5878 5878 5878 5879 5879 5879
5882 5881 5881 5880 5881 5880 5880 5880 5879 5879 5878 5877 5877 5877 5876 5876 5876 5876 5876 5876 5876 5876 5876 5876 5876 5876 5875 5875 5873 5871 5871 5873 5875 5875 5876 5876 5877 5877 5877 5877 5878 5878 5879
5881 5881 5881 5881 5880 5880 5880 5879 5879 5879 5878 5878 5877 5877 5876 5876 5876 5876 5876 5876 5876 5876 5876 5875 5875 5875 5875 5874 5872 5870 5870 5872 5874 5875 5875 5875 5876 5876 5877 5877 5877 5878 5878
5881 5881 5881 5880 5880 5879 5879 5879 5879 5878 5878 5877 5877 5876 5876 5876 5876 5876 5875 5875 5875 5875 5875 5875 5874 5874 5874 5873 5872 5871 5872 5873 5873 5874 5874 5875 5875 5876 5876 5876 5877 5877 5877
5881 5881 5880 5880 5879 5879 5879 5879 5878 5878 5877 5877 5877 5876 5876 5876 5875 5875 5875 5875 5875 5874 5874 5874 5874 5873 5873 5873 5872 5872 5872 5872 5873 5873 5874 5874 5874 5875 5875 5875 5876 5876 5876
5881 5880 5880 5879 5879 5878 5878 5878 5878 5877 5877 5877 5876 5876 5875 5875 5875 5875 5874 5874 5874 5874 5874 5873 5873 5873 5872 5872 5872 5872 5872 5872 5872 5873 5873 5873 5874 5874 5874 5874 5875 5875 5876
5880 5880 5879 5879 5878 5878 5878 5877 5877 5877 5876 5876 5876 5875 5875 5874 5874 5874 5874 5874 5873 5873 5873 5873 5872 5872 5871 5871 5871 5871 5871 5871 5872 5872 5872 5873 5873 5873 5873 5874 5874 5874 5874
5879 5879 5878 5878 5878 5878 5877 5877 5876 5876 5876 5875 5875 5874 5874 5873 5873 5873 5873 5873 5873 5873 5872 5872 5872 5871 5871 5870 5870 5870 5870 5870 5871 5871 5871 5872 5872 5872 5872 5873 5873 5873 5873
5878 5878 5878 5878 5877 5877 5877 5876 5876 5875 5875 5874 5874 5873 5873 5873 5872 5872 5872 5872 5872 5872 5872 5871 5871 5870 5870 5870 5869 5869 5870 5870 5870 5870 5871 5871 5871 5871 5871 5871 5872 5872 5872
5877 5877 5877 5877 5876 5876 5876 5875 5875 5874 5874 5873 5873 5873 5872 5872 5872 5871 5871 5871 5871 5871 5871 5870 5870 5869 5869 5869 5869 5869 5869 5869 5869 5869 5869 5869 5870 5870 5870 5870 5870 5871 5871
5876 5876 5876 5876 5875 5875 5875 5875 5874 5874 5873 5873 5872 5872 5871 5871 5871 5870 5870 5870 5870 5870 5870 5869 5869 5869 5868 5868 5868 5868 5868 5868 5868 5868 5868 5868 5868 5868 5868 5869 5869 5869 5869
5875 5875 5875 5875 5874 5874 5874 5873 5873 5873 5872 5872 5871 5871 5870 5870 5870 5869 5869 5869 5869 5869 5869 5868 5868 5868 5867 5867 5867 5867 5867 5867 5867 5867 5867 5867 5867 5867 5867 5867 5868 5868 5868
5874 5874 5874 5873 5873 5873 5873 5872 5872 5872 5871 5871 5870 5870 5869 5869 5868 5868 5868 5867 5867 5867 5867 5867 5867 5866 5866 5866 5866 5866 5866 5866 5865 5865 5865 5866 5865 5866 5866 5866 5866 5866 5866
5872 5872 5872 5872 5872 5872 5871 5871 5871 5870 5870 5870 5869 5868 5868 5867 5867 5867 5866 5866 5866 5866 5866 5866 5865 5865 5864 5865 5865 5864 5864 5864 5864 5864 5864 5864 5864 5864 5864 5864 5864 5864 5864
5871 5871 5871 5870 5870 5870 5870 5870 5870 5869 5869 5868 5868 5867 5866 5866 5865 5865 5865 5865 5865 5865 5864 5864 5864 5863 5863 5863 5863 5863 5863 5863 5863 5863 5863 5863 5863 5863 5862 5862 5862 5862 5862
5869 5869 5869 5869 5869 5869 5869 5869 5868 5868 5868 5867 5866 5866 5865 5865 5864 5864 5864 5863 5863 5863 5863 5862 5862 5862 5862 5862 5861 5862 5862 5861 5861 5861 5861 5861 5861 5861 5860 5860 5860 5860 5860
5867 5867 5868 5868 5867 5868 5868 5868 5867 5867 5867 5866 5865 5865 5864 5864 5863 5863 5862 5862 5862 5862 5861 5861 5861 5861 5860 5860 5860 5860 5860 5860 5860 5860 5860 5860 5860 5859 5859 5859 5858 5858 5858
5865 5866 5866 5866 5866 5866 5866 5866 5866 5866 5865 5865 5864 5864 5863 5863 5862 5862 5861 5861 5860 5860 5860 5860 5860 5859 5859 5859 5859 5859 5859 5859 5859 5858 5858 5858 5858 5858 5857 5857 5857 5856 5856
5863 5864 5863 5864 5864 5864 5864 5864 5864 5864 5864 5864 5863 5863 5862 5861 5861 5861 5860 5860 5859 5859 5859 5859 5859 5858 5858 5858 5858 5857 5857 5857 5857 5857 5857 5857 5856 5856 5856 5855 5855 5854 5854
5861 5861 5862 5862 5862 5862 5862 5862 5862 5862 5862 5862 5862 5861 5861 5860 5860 5859 5859 5859 5859 5858 5858 5857 5857 5857 5857 5857 5857 5856 5856 5856 5856 5856 5856 5855 5855 5855 5854 5853 5853 5852 5852
5859 5859 5860 5860 5860 5860 5860 5860 5860 5860 5860 5860 5860 5860 5859 5859 5858 5858 5858 5858 5857 5857 5857 5856 5856 5855 5855 5855 5856 5855 5855 5855 5854 5854 5854 5854 5853 5853 5852 5852 5851 5850 5850
5856 5857 5857 5857 5857 5857 5857 5857 5858 5858 5858 5858 5858 5858 5857 5857 5857 5856 5856 5856 5856 5856 5855 5855 5855 5854 5854 5854 5854 5854 5854 5853 5853 5853 5853 5853 5852 5852 5851 5850 5849 5848 5848
5854 5854 5855 5855 5855 5855 5855 5855 5855 5855 5855 5856 5856 5856 5856 5855 5855 5855 5854 5854 5854 5854 5854 5853 5853 5853 5853 5853 5852 5852 5852 5852 5852 5852 5851 5851 5850 5850 5849 5848 5847 5846 5845
5852 5852 5852 5852 5852 5853 5853 5853 5853 5853 5853 5853 5853 5853 5853 5853 5853 5853 5853 5852 5852 5852 5852 5852 5851 5851 5851 5851 5851 5851 5850 5850 5850 5850 5849 5849 5849 5848 5847 5846 5845 5844 5843
5849 5849 5849 5850 5850 5850 5850 5850 5850 5850 5850 5851 5851 5851 5851 5851 5851 5851 5851 5850 5850 5850 5850 5850 5850 5850 5849 5849 5849 5849 5849 5848 5848 5848 5847 5847 5846 5846 5845 5844 5843 5843 5842